Time,TemperatureF,DewpointF,PressureIn,WindDirection,WindDirectionDegrees,WindSpeedMPH,WindSpeedGustMPH,Humidity,HourlyPrecipIn,Conditions,Clouds,dailyrainin,SoftwareType,DateUTC
2013-07-05 00:01:00,82.1,74.6,30.06,WSW,249,2.0,3.0,78,0.00,,FEW050,0.00,VWS V14.01,2013-07-05 04:01:00,
2013-07-05 00:03:00,82.0,74.5,30.06,WNW,291,1.0,3.0,78,0.00,,FEW050,0.00,VWS V14.01,2013-07-05 04:03:00,
2013-07-05 00:04:00,82.0,74.5,30.06,NW,319,0.0,2.0,78,0.00,,FEW050,0.00,VWS V14.01,2013-07-05 04:04:00,
2013-07-05 00:09:00,82.0,74.5,30.06,WSW,256,1.0,2.0,78,0.00,,FEW050,0.00,VWS V14.01,2013-07-05 04:09:00,
2013-07-05 00:14:00,81.9,74.4,30.07,WNW,284,1.0,1.0,78,0.00,,FEW050,0.00,VWS V14.01,2013-07-05 04:14:00,
2013-07-05 00:19:00,81.8,74.3,30.07,WNW,290,0.0,0.0,78,0.00,,FEW050,0.00,VWS V14.01,2013-07-05 04:19:00,
2013-07-05 00:24:00,81.6,74.5,30.07,WSW,243,1.0,2.0,79,0.00,,FEW050,0.00,VWS V14.01,2013-07-05 04:24:00,
2013-07-05 00:29:00,81.5,74.4,30.07,SW,219,0.0,1.0,79,0.00,,FEW050,0.00,VWS V14.01,2013-07-05 04:29:00,
2013-07-05 00:34:00,81.3,74.5,30.07,SSW,204,0.0,1.0,80,0.00,,CLR,0.00,VWS V14.01,2013-07-05 04:34:00,
2013-07-05 00:39:00,81.2,74.4,30.07,NW,307,0.0,1.0,80,0.00,,CLR,0.00,VWS V14.01,2013-07-05 04:39:00,
2013-07-05 00:44:00,81.1,74.3,30.07,West,266,0.0,1.0,80,0.00,,CLR,0.00,VWS V14.01,2013-07-05 04:44:00,
2013-07-05 00:49:00,80.9,74.5,30.07,SW,219,0.0,1.0,81,0.00,,CLR,0.00,VWS V14.01,2013-07-05 04:49:00,
2013-07-05 00:54:00,80.8,74.4,30.07,SW,229,0.0,1.0,81,0.00,,CLR,0.00,VWS V14.01,2013-07-05 04:54:00,
2013-07-05 00:59:00,80.6,74.2,30.07,SSW,208,0.0,2.0,81,0.00,,CLR,0.00,VWS V14.01,2013-07-05 04:59:00,
2013-07-05 01:04:00,80.5,74.5,30.07,SW,236,1.0,1.0,82,0.00,,CLR,0.00,VWS V14.01,2013-07-05 05:04:00,
2013-07-05 01:09:00,80.4,74.4,30.07,SW,228,0.0,0.0,82,0.00,,CLR,0.00,VWS V14.01,2013-07-05 05:09:00,
2013-07-05 01:14:00,80.2,74.2,30.07,West,271,0.0,1.0,82,0.00,,CLR,0.00,VWS V14.01,2013-07-05 05:14:00,
2013-07-05 01:19:00,80.1,74.1,30.06,WSW,246,0.0,0.0,82,0.00,,CLR,0.00,VWS V14.01,2013-07-05 05:19:00,
2013-07-05 01:24:00,79.9,74.3,30.06,SE,135,0.0,0.0,83,0.00,,CLR,0.00,VWS V14.01,2013-07-05 05:24:00,
2013-07-05 01:29:00,79.8,74.2,30.06,SW,233,0.0,2.0,83,0.00,,CLR,0.00,VWS V14.01,2013-07-05 05:29:00,
2013-07-05 01:34:00,79.6,74.0,30.06,SW,233,0.0,0.0,83,0.00,,CLR,0.00,VWS V14.01,2013-07-05 05:34:00,
2013-07-05 01:39:00,79.5,73.9,30.06,West,259,0.0,1.0,83,0.00,,CLR,0.00,VWS V14.01,2013-07-05 05:39:00,
2013-07-05 01:44:00,79.3,74.1,30.06,SSW,212,1.0,1.0,84,0.00,,CLR,0.00,VWS V14.01,2013-07-05 05:44:00,
2013-07-05 01:49:00,79.3,74.1,30.06,WSW,252,0.0,1.0,84,0.00,,CLR,0.00,VWS V14.01,2013-07-05 05:49:00,
2013-07-05 01:54:00,79.2,73.9,30.06,SSE,150,1.0,1.0,84,0.00,,CLR,0.00,VWS V14.01,2013-07-05 05:54:00,
2013-07-05 01:59:00,79.0,73.8,30.06,WNW,288,1.0,1.0,84,0.00,,CLR,0.00,VWS V14.01,2013-07-05 05:59:00,
2013-07-05 02:04:00,79.0,74.1,30.06,SW,226,0.0,1.0,85,0.00,,CLR,0.00,VWS V14.01,2013-07-05 06:04:00,
2013-07-05 02:09:00,78.9,74.0,30.06,SW,219,0.0,0.0,85,0.00,,CLR,0.00,VWS V14.01,2013-07-05 06:09:00,
2013-07-05 02:14:00,78.9,74.0,30.05,SE,141,1.0,2.0,85,0.00,,CLR,0.00,VWS V14.01,2013-07-05 06:14:00,
2013-07-05 02:19:00,78.8,73.9,30.05,WSW,255,1.0,2.0,85,0.00,,CLR,0.00,VWS V14.01,2013-07-05 06:19:00,
2013-07-05 02:24:00,78.7,73.8,30.06,SW,221,1.0,2.0,85,0.00,,CLR,0.00,VWS V14.01,2013-07-05 06:24:00,
2013-07-05 02:29:00,78.7,73.8,30.06,WSW,256,1.0,1.0,85,0.00,,CLR,0.00,VWS V14.01,2013-07-05 06:29:00,
2013-07-05 02:34:00,78.6,73.7,30.06,SW,218,1.0,2.0,85,0.00,,CLR,0.00,VWS V14.01,2013-07-05 06:34:00,
2013-07-05 02:39:00,78.5,73.6,30.06,SSW,204,0.0,1.0,85,0.00,,CLR,0.00,VWS V14.01,2013-07-05 06:39:00,
2013-07-05 02:44:00,78.4,73.9,30.06,SSW,199,0.0,2.0,86,0.00,,CLR,0.00,VWS V14.01,2013-07-05 06:44:00,
2013-07-05 02:49:00,78.4,73.9,30.06,WSW,243,0.0,1.0,86,0.00,,CLR,0.00,VWS V14.01,2013-07-05 06:49:00,
2013-07-05 02:54:00,78.3,73.8,30.06,West,259,0.0,0.0,86,0.00,,CLR,0.00,VWS V14.01,2013-07-05 06:54:00,
2013-07-05 02:59:00,78.2,73.7,30.07,SSW,200,0.0,0.0,86,0.00,,CLR,0.00,VWS V14.01,2013-07-05 06:59:00,
2013-07-05 03:04:00,78.2,73.7,30.06,SSW,198,0.0,1.0,86,0.00,,CLR,0.00,VWS V14.01,2013-07-05 07:04:00,
2013-07-05 03:09:00,78.1,73.6,30.06,WSW,257,0.0,2.0,86,0.00,,CLR,0.00,VWS V14.01,2013-07-05 07:09:00,
2013-07-05 03:14:00,78.0,73.5,30.07,West,278,0.0,0.0,86,0.00,,CLR,0.00,VWS V14.01,2013-07-05 07:14:00,
2013-07-05 03:19:00,78.0,73.5,30.07,SW,228,1.0,1.0,86,0.00,,CLR,0.00,VWS V14.01,2013-07-05 07:19:00,
2013-07-05 03:24:00,77.9,73.4,30.07,WSW,245,0.0,0.0,86,0.00,,CLR,0.00,VWS V14.01,2013-07-05 07:24:00,
2013-07-05 03:29:00,77.8,73.3,30.07,SW,219,1.0,1.0,86,0.00,,CLR,0.00,VWS V14.01,2013-07-05 07:29:00,
2013-07-05 03:34:00,77.7,73.2,30.07,WSW,243,1.0,2.0,86,0.00,,CLR,0.00,VWS V14.01,2013-07-05 07:34:00,
2013-07-05 03:39:00,77.6,73.1,30.07,WSW,239,0.0,1.0,86,0.00,,CLR,0.00,VWS V14.01,2013-07-05 07:39:00,
2013-07-05 03:44:00,77.5,73.0,30.07,SW,229,0.0,0.0,86,0.00,,CLR,0.00,VWS V14.01,2013-07-05 07:44:00,
2013-07-05 03:49:00,77.5,73.0,30.07,SW,229,0.0,0.0,86,0.00,,CLR,0.00,VWS V14.01,2013-07-05 07:49:00,
2013-07-05 03:54:00,77.4,72.9,30.07,SW,221,0.0,0.0,86,0.00,,CLR,0.00,VWS V14.01,2013-07-05 07:54:00,
2013-07-05 03:59:00,77.4,72.9,30.07,SW,221,0.0,0.0,86,0.00,,CLR,0.00,VWS V14.01,2013-07-05 07:59:00,
2013-07-05 04:04:00,77.3,72.8,30.07,SW,222,0.0,0.0,86,0.00,,CLR,0.00,VWS V14.01,2013-07-05 08:04:00,
2013-07-05 04:09:00,77.1,72.6,30.07,SW,222,0.0,0.0,86,0.00,,CLR,0.00,VWS V14.01,2013-07-05 08:09:00,
2013-07-05 04:14:00,76.9,72.4,30.07,SW,225,0.0,0.0,86,0.00,,CLR,0.00,VWS V14.01,2013-07-05 08:14:00,
2013-07-05 04:19:00,76.8,72.3,30.07,SW,224,0.0,0.0,86,0.00,,CLR,0.00,VWS V14.01,2013-07-05 08:19:00,
2013-07-05 04:24:00,76.7,72.2,30.07,SW,224,0.0,0.0,86,0.00,,CLR,0.00,VWS V14.01,2013-07-05 08:24:00,
2013-07-05 04:29:00,76.6,72.1,30.07,SW,224,0.0,0.0,86,0.00,,CLR,0.00,VWS V14.01,2013-07-05 08:29:00,
2013-07-05 04:34:00,76.5,72.0,30.07,SW,224,0.0,0.0,86,0.00,,CLR,0.00,VWS V14.01,2013-07-05 08:34:00,
2013-07-05 04:39:00,76.4,71.9,30.07,SW,224,0.0,0.0,86,0.00,,CLR,0.00,VWS V14.01,2013-07-05 08:39:00,
2013-07-05 04:44:00,76.3,71.8,30.07,SW,224,0.0,0.0,86,0.00,,CLR,0.00,VWS V14.01,2013-07-05 08:44:00,
2013-07-05 04:49:00,76.3,71.8,30.07,SW,222,0.0,1.0,86,0.00,,CLR,0.00,VWS V14.01,2013-07-05 08:49:00,
2013-07-05 04:54:00,76.2,71.7,30.07,SW,221,0.0,0.0,86,0.00,,CLR,0.00,VWS V14.01,2013-07-05 08:54:00,
2013-07-05 04:59:00,76.2,71.7,30.07,SW,221,0.0,0.0,86,0.00,,CLR,0.00,VWS V14.01,2013-07-05 08:59:00,
2013-07-05 05:04:00,76.1,71.6,30.07,SSW,210,0.0,0.0,86,0.00,,CLR,0.00,VWS V14.01,2013-07-05 09:04:00,
2013-07-05 05:09:00,76.1,71.6,30.08,SSW,212,0.0,0.0,86,0.00,,CLR,0.00,VWS V14.01,2013-07-05 09:09:00,
2013-07-05 05:14:00,76.1,71.3,30.08,WSW,240,0.0,0.0,85,0.00,,CLR,0.00,VWS V14.01,2013-07-05 09:14:00,
2013-07-05 05:19:00,76.1,71.3,30.08,SW,232,0.0,0.0,85,0.00,,CLR,0.00,VWS V14.01,2013-07-05 09:19:00,
2013-07-05 05:24:00,76.1,71.3,30.08,WSW,245,0.0,0.0,85,0.00,,CLR,0.00,VWS V14.01,2013-07-05 09:24:00,
2013-07-05 05:29:00,76.2,71.4,30.09,WSW,249,0.0,0.0,85,0.00,,CLR,0.00,VWS V14.01,2013-07-05 09:29:00,
2013-07-05 05:34:00,76.2,71.4,30.09,WSW,249,0.0,0.0,85,0.00,,CLR,0.00,VWS V14.01,2013-07-05 09:34:00,
2013-07-05 05:40:00,76.3,71.8,30.09,WSW,246,0.0,0.0,86,0.00,,CLR,0.00,VWS V14.01,2013-07-05 09:40:00,
2013-07-05 05:45:00,76.4,71.9,30.09,WSW,246,0.0,0.0,86,0.00,,CLR,0.00,VWS V14.01,2013-07-05 09:45:00,
2013-07-05 05:51:00,76.5,72.0,30.09,WSW,246,0.0,0.0,86,0.00,,CLR,0.00,VWS V14.01,2013-07-05 09:51:00,
2013-07-05 05:56:00,76.6,72.1,30.09,WSW,243,0.0,0.0,86,0.00,,CLR,0.00,VWS V14.01,2013-07-05 09:56:00,
2013-07-05 06:01:00,76.7,72.2,30.09,WSW,246,0.0,0.0,86,0.00,,CLR,0.00,VWS V14.01,2013-07-05 10:01:00,
2013-07-05 06:07:00,76.9,72.4,30.09,WSW,256,0.0,0.0,86,0.00,,CLR,0.00,VWS V14.01,2013-07-05 10:07:00,
2013-07-05 06:12:00,77.1,72.6,30.09,WSW,256,0.0,1.0,86,0.00,,CLR,0.00,VWS V14.01,2013-07-05 10:12:00,
2013-07-05 06:17:00,77.2,72.7,30.09,WSW,252,1.0,1.0,86,0.00,,CLR,0.00,VWS V14.01,2013-07-05 10:17:00,
2013-07-05 06:22:00,77.4,72.9,30.09,WSW,252,0.0,0.0,86,0.00,,CLR,0.00,VWS V14.01,2013-07-05 10:22:00,
2013-07-05 06:28:00,77.7,73.2,30.09,SE,143,1.0,2.0,86,0.00,,CLR,0.00,VWS V14.01,2013-07-05 10:28:00,
2013-07-05 06:33:00,77.9,73.0,30.09,SW,228,1.0,1.0,85,0.00,,CLR,0.00,VWS V14.01,2013-07-05 10:33:00,
2013-07-05 06:38:00,78.0,73.1,30.09,WNW,300,2.0,2.0,85,0.00,,CLR,0.00,VWS V14.01,2013-07-05 10:38:00,
2013-07-05 06:43:00,78.3,73.4,30.10,West,259,0.0,0.0,85,0.00,,CLR,0.00,VWS V14.01,2013-07-05 10:43:00,
2013-07-05 06:48:00,78.5,73.6,30.09,WSW,246,1.0,2.0,85,0.00,,CLR,0.00,VWS V14.01,2013-07-05 10:48:00,
2013-07-05 06:53:00,78.6,73.7,30.10,WNW,284,0.0,1.0,85,0.00,,CLR,0.00,VWS V14.01,2013-07-05 10:53:00,
2013-07-05 06:58:00,78.8,73.9,30.09,West,260,1.0,1.0,85,0.00,,CLR,0.00,VWS V14.01,2013-07-05 10:58:00,
2013-07-05 07:03:00,79.0,74.1,30.10,West,269,0.0,2.0,85,0.00,,CLR,0.00,VWS V14.01,2013-07-05 11:03:00,
2013-07-05 07:08:00,79.2,73.9,30.10,West,274,1.0,2.0,84,0.00,,CLR,0.00,VWS V14.01,2013-07-05 11:08:00,
2013-07-05 07:13:00,79.4,74.2,30.10,SSW,210,1.0,1.0,84,0.00,,CLR,0.00,VWS V14.01,2013-07-05 11:13:00,
2013-07-05 07:19:00,79.6,74.3,30.10,WNW,300,1.0,2.0,84,0.00,,CLR,0.00,VWS V14.01,2013-07-05 11:19:00,
2013-07-05 07:24:00,79.9,74.3,30.10,West,271,0.0,2.0,83,0.00,,CLR,0.00,VWS V14.01,2013-07-05 11:24:00,
2013-07-05 07:29:00,80.1,74.5,30.10,NW,316,0.0,2.0,83,0.00,,CLR,0.00,VWS V14.01,2013-07-05 11:29:00,
2013-07-05 07:34:00,80.4,74.8,30.10,WNW,285,1.0,1.0,83,0.00,,CLR,0.00,VWS V14.01,2013-07-05 11:34:00,
2013-07-05 07:39:00,80.9,74.9,30.10,West,276,1.0,2.0,82,0.00,,CLR,0.00,VWS V14.01,2013-07-05 11:39:00,
2013-07-05 07:44:00,81.3,74.9,30.10,SE,128,1.0,3.0,81,0.00,,CLR,0.00,VWS V14.01,2013-07-05 11:44:00,
2013-07-05 07:49:00,82.0,75.2,30.10,NW,319,1.0,1.0,80,0.00,,CLR,0.00,VWS V14.01,2013-07-05 11:49:00,
2013-07-05 07:54:00,82.1,74.9,30.10,West,277,3.0,3.0,79,0.00,,CLR,0.00,VWS V14.01,2013-07-05 11:54:00,
2013-07-05 07:59:00,82.1,75.3,30.10,West,278,0.0,1.0,80,0.00,,CLR,0.00,VWS V14.01,2013-07-05 11:59:00,
2013-07-05 08:04:00,82.7,75.9,30.10,West,280,1.0,2.0,80,0.00,,CLR,0.00,VWS V14.01,2013-07-05 12:04:00,
2013-07-05 08:09:00,83.5,75.5,30.10,NW,307,0.0,1.0,77,0.00,,CLR,0.00,VWS V14.01,2013-07-05 12:09:00,
2013-07-05 08:14:00,83.8,75.8,30.10,WNW,290,1.0,1.0,77,0.00,,CLR,0.00,VWS V14.01,2013-07-05 12:14:00,
2013-07-05 08:20:00,83.9,75.9,30.10,WNW,297,0.0,0.0,77,0.00,,CLR,0.00,VWS V14.01,2013-07-05 12:20:00,
2013-07-05 08:25:00,84.5,75.7,30.10,WNW,297,0.0,1.0,75,0.00,,CLR,0.00,VWS V14.01,2013-07-05 12:25:00,
2013-07-05 08:30:00,84.4,75.6,30.10,WNW,290,2.0,2.0,75,0.00,,CLR,0.00,VWS V14.01,2013-07-05 12:30:00,
2013-07-05 08:35:00,84.7,76.3,30.10,North,6,1.0,2.0,76,0.00,,CLR,0.00,VWS V14.01,2013-07-05 12:35:00,
2013-07-05 08:40:00,85.4,76.6,30.10,West,274,0.0,1.0,75,0.00,,CLR,0.00,VWS V14.01,2013-07-05 12:40:00,
2013-07-05 08:45:00,86.0,76.8,30.10,WNW,288,0.0,2.0,74,0.00,,CLR,0.00,VWS V14.01,2013-07-05 12:45:00,
2013-07-05 08:50:00,85.4,75.8,30.10,WNW,284,1.0,2.0,73,0.00,,CLR,0.00,VWS V14.01,2013-07-05 12:50:00,
2013-07-05 08:55:00,85.6,76.4,30.10,WSW,245,0.0,1.0,74,0.00,,CLR,0.00,VWS V14.01,2013-07-05 12:55:00,
2013-07-05 09:01:00,85.6,76.0,30.10,SW,224,3.0,3.0,73,0.00,,CLR,0.00,VWS V14.01,2013-07-05 13:01:00,
2013-07-05 09:06:00,86.0,76.8,30.10,NW,316,1.0,3.0,74,0.00,,CLR,0.00,VWS V14.01,2013-07-05 13:06:00,
2013-07-05 09:12:00,86.7,75.8,30.10,West,274,0.0,1.0,70,0.00,,CLR,0.00,VWS V14.01,2013-07-05 13:12:00,
2013-07-05 09:17:00,86.7,76.2,30.10,West,280,1.0,1.0,71,0.00,,CLR,0.00,VWS V14.01,2013-07-05 13:17:00,
2013-07-05 09:22:00,86.7,76.2,30.10,NNW,333,1.0,2.0,71,0.00,,CLR,0.00,VWS V14.01,2013-07-05 13:22:00,
2013-07-05 09:27:00,86.2,75.3,30.09,WNW,288,0.0,3.0,70,0.00,,CLR,0.00,VWS V14.01,2013-07-05 13:27:00,
2013-07-05 09:32:00,86.8,76.3,30.09,WNW,297,1.0,1.0,71,0.00,,FEW050,0.00,VWS V14.01,2013-07-05 13:32:00,
2013-07-05 09:37:00,87.4,76.0,30.09,WNW,288,2.0,2.0,69,0.00,,FEW050,0.00,VWS V14.01,2013-07-05 13:37:00,
2013-07-05 09:42:00,87.7,77.1,30.09,West,276,0.0,1.0,71,0.00,,FEW050,0.00,VWS V14.01,2013-07-05 13:42:00,
2013-07-05 09:47:00,88.6,76.2,30.09,South,190,0.0,2.0,67,0.00,,FEW050,0.00,VWS V14.01,2013-07-05 13:47:00,
2013-07-05 09:52:00,89.2,76.4,30.09,West,263,0.0,1.0,66,0.00,,FEW050,0.00,VWS V14.01,2013-07-05 13:52:00,
2013-07-05 09:57:00,88.9,76.1,30.09,WSW,247,2.0,3.0,66,0.00,,FEW050,0.00,VWS V14.01,2013-07-05 13:57:00,
2013-07-05 10:03:00,89.0,76.6,30.09,SW,229,0.0,1.0,67,0.00,,FEW050,0.00,VWS V14.01,2013-07-05 14:03:00,
2013-07-05 10:08:00,88.9,75.6,30.09,NW,311,1.0,1.0,65,0.00,,FEW050,0.00,VWS V14.01,2013-07-05 14:08:00,
2013-07-05 10:13:00,88.8,76.0,30.09,WNW,302,0.0,3.0,66,0.00,,FEW050,0.00,VWS V14.01,2013-07-05 14:13:00,
2013-07-05 10:18:00,89.0,75.7,30.09,SSW,208,1.0,1.0,65,0.00,,FEW050,0.00,VWS V14.01,2013-07-05 14:18:00,
2013-07-05 10:23:00,89.2,75.9,30.09,WNW,297,0.0,1.0,65,0.00,,FEW050,0.00,VWS V14.01,2013-07-05 14:23:00,
2013-07-05 10:29:00,89.3,76.5,30.08,SW,221,1.0,1.0,66,0.00,,FEW050,0.00,VWS V14.01,2013-07-05 14:29:00,
2013-07-05 10:34:00,89.9,75.6,30.09,West,263,1.0,1.0,63,0.00,,FEW250,0.00,VWS V14.01,2013-07-05 14:34:00,
2013-07-05 10:39:00,89.9,76.1,30.09,SSW,207,2.0,2.0,64,0.00,,FEW250,0.00,VWS V14.01,2013-07-05 14:39:00,
2013-07-05 10:44:00,90.6,76.3,30.09,SW,233,1.0,3.0,63,0.00,,FEW250,0.00,VWS V14.01,2013-07-05 14:44:00,
2013-07-05 10:49:00,90.6,75.8,30.09,WSW,255,1.0,3.0,62,0.00,,FEW250,0.00,VWS V14.01,2013-07-05 14:49:00,
2013-07-05 10:54:00,90.9,76.6,30.08,WSW,249,0.0,1.0,63,0.00,,FEW250,0.00,VWS V14.01,2013-07-05 14:54:00,
2013-07-05 10:59:00,91.1,75.8,30.08,West,278,1.0,1.0,61,0.00,,FEW250,0.00,VWS V14.01,2013-07-05 14:59:00,
2013-07-05 11:04:00,91.3,76.5,30.08,West,271,1.0,1.0,62,0.00,,FEW250,0.00,VWS V14.01,2013-07-05 15:04:00,
2013-07-05 11:10:00,91.6,76.7,30.08,West,274,2.0,4.0,62,0.00,,FEW250,0.00,VWS V14.01,2013-07-05 15:10:00,
2013-07-05 11:15:00,91.3,76.5,30.08,WNW,302,2.0,2.0,62,0.00,,FEW250,0.00,VWS V14.01,2013-07-05 15:15:00,
2013-07-05 11:20:00,91.5,76.2,30.08,NW,322,3.0,3.0,61,0.00,,FEW250,0.00,VWS V14.01,2013-07-05 15:20:00,
2013-07-05 11:25:00,91.0,75.7,30.08,NNE,15,2.0,2.0,61,0.00,,FEW250,0.00,VWS V14.01,2013-07-05 15:25:00,
2013-07-05 11:31:00,91.4,76.6,30.08,West,277,0.0,2.0,62,0.00,,FEW250,0.00,VWS V14.01,2013-07-05 15:31:00,
2013-07-05 11:36:00,91.7,76.3,30.07,WNW,294,2.0,2.0,61,0.00,,FEW250,0.00,VWS V14.01,2013-07-05 15:36:00,
2013-07-05 11:41:00,91.8,76.4,30.07,WNW,288,1.0,1.0,61,0.00,,FEW250,0.00,VWS V14.01,2013-07-05 15:41:00,
2013-07-05 11:46:00,92.2,76.8,30.07,NNW,335,0.0,1.0,61,0.00,,FEW250,0.00,VWS V14.01,2013-07-05 15:46:00,
2013-07-05 11:51:00,92.2,76.3,30.07,NW,312,0.0,2.0,60,0.00,,FEW250,0.00,VWS V14.01,2013-07-05 15:51:00,
2013-07-05 11:54:00,91.8,75.9,30.07,West,268,1.0,2.0,60,0.00,,FEW250,0.00,VWS V14.01,2013-07-05 15:54:00,
2013-07-05 11:59:00,91.8,76.4,30.07,WNW,293,1.0,1.0,61,0.00,,FEW250,0.00,VWS V14.01,2013-07-05 15:59:00,
2013-07-05 12:04:00,91.8,76.9,30.07,SSW,211,1.0,2.0,62,0.00,,FEW250,0.00,VWS V14.01,2013-07-05 16:04:00,
2013-07-05 12:09:00,92.8,77.4,30.07,SSE,154,0.0,1.0,61,0.00,,FEW250,0.00,VWS V14.01,2013-07-05 16:09:00,
2013-07-05 12:14:00,93.3,76.8,30.07,NW,326,1.0,4.0,59,0.00,,FEW250,0.00,VWS V14.01,2013-07-05 16:14:00,
2013-07-05 12:19:00,92.6,77.2,30.07,East,88,1.0,2.0,61,0.00,,FEW250,0.00,VWS V14.01,2013-07-05 16:19:00,
2013-07-05 12:24:00,92.9,75.9,30.07,WNW,285,2.0,4.0,58,0.00,,FEW250,0.00,VWS V14.01,2013-07-05 16:24:00,
2013-07-05 12:29:00,92.9,78.0,30.06,West,262,2.0,2.0,62,0.00,,FEW250,0.00,VWS V14.01,2013-07-05 16:29:00,
2013-07-05 12:34:00,93.3,76.8,30.06,West,281,0.0,2.0,59,0.00,,FEW250,0.00,VWS V14.01,2013-07-05 16:34:00,
2013-07-05 12:39:00,93.4,76.4,30.06,West,270,2.0,2.0,58,0.00,,FEW250,0.00,VWS V14.01,2013-07-05 16:39:00,
2013-07-05 12:44:00,93.4,76.9,30.05,WNW,295,2.0,3.0,59,0.00,,FEW250,0.00,VWS V14.01,2013-07-05 16:44:00,
2013-07-05 12:49:00,92.8,76.4,30.05,North,349,1.0,1.0,59,0.00,,FEW250,0.00,VWS V14.01,2013-07-05 16:49:00,
2013-07-05 12:51:00,92.9,77.5,30.05,ESE,109,1.0,2.0,61,0.00,,FEW250,0.00,VWS V14.01,2013-07-05 16:51:00,
2013-07-05 12:56:00,94.0,77.0,30.05,SSW,211,0.0,0.0,58,0.00,,FEW250,0.00,VWS V14.01,2013-07-05 16:56:00,
2013-07-05 13:01:00,94.3,77.8,30.05,WSW,250,2.0,2.0,59,0.00,,FEW250,0.00,VWS V14.01,2013-07-05 17:01:00,
2013-07-05 13:07:00,94.6,78.1,30.05,West,268,2.0,2.0,59,0.00,,FEW250,0.00,VWS V14.01,2013-07-05 17:07:00,
2013-07-05 13:12:00,94.9,77.3,30.05,WNW,292,1.0,1.0,57,0.00,,FEW250,0.00,VWS V14.01,2013-07-05 17:12:00,
2013-07-05 13:17:00,94.7,76.6,30.04,WNW,284,0.0,2.0,56,0.00,,FEW250,0.00,VWS V14.01,2013-07-05 17:17:00,
2013-07-05 13:22:00,94.9,77.8,30.04,WNW,301,3.0,3.0,58,0.00,,FEW250,0.00,VWS V14.01,2013-07-05 17:22:00,
2013-07-05 13:27:00,94.5,76.9,30.04,WSW,251,1.0,3.0,57,0.00,,FEW250,0.00,VWS V14.01,2013-07-05 17:27:00,
2013-07-05 13:32:00,94.6,77.0,30.04,SSW,205,2.0,4.0,57,0.00,,SCT040,0.00,VWS V14.01,2013-07-05 17:32:00,
2013-07-05 13:37:00,94.8,77.2,30.04,West,276,1.0,3.0,57,0.00,,SCT040,0.00,VWS V14.01,2013-07-05 17:37:00,
2013-07-05 13:42:00,94.6,76.5,30.04,WSW,257,1.0,3.0,56,0.00,,SCT040,0.00,VWS V14.01,2013-07-05 17:42:00,
2013-07-05 13:47:00,94.5,76.9,30.03,WSW,246,4.0,4.0,57,0.00,,SCT040,0.00,VWS V14.01,2013-07-05 17:47:00,
2013-07-05 13:52:00,94.7,77.1,30.03,North,352,1.0,5.0,57,0.00,,SCT040,0.00,VWS V14.01,2013-07-05 17:52:00,
2013-07-05 13:57:00,95.2,77.0,30.03,SW,227,1.0,3.0,56,0.00,,SCT040,0.00,VWS V14.01,2013-07-05 17:57:00,
2013-07-05 14:02:00,95.9,76.6,30.03,West,261,5.0,6.0,54,0.00,,SCT040,0.00,VWS V14.01,2013-07-05 18:02:00,
2013-07-05 14:07:00,95.4,76.1,30.03,SW,221,3.0,3.0,54,0.00,,SCT040,0.00,VWS V14.01,2013-07-05 18:07:00,
2013-07-05 14:12:00,95.6,76.9,30.03,SW,224,5.0,5.0,55,0.00,,SCT040,0.00,VWS V14.01,2013-07-05 18:12:00,
2013-07-05 14:17:00,95.4,76.7,30.03,SW,235,0.0,1.0,55,0.00,,SCT040,0.00,VWS V14.01,2013-07-05 18:17:00,
2013-07-05 14:22:00,95.5,76.8,30.02,WSW,255,3.0,4.0,55,0.00,,SCT040,0.00,VWS V14.01,2013-07-05 18:22:00,
2013-07-05 14:27:00,95.5,76.8,30.03,WSW,238,2.0,3.0,55,0.00,,SCT040,0.00,VWS V14.01,2013-07-05 18:27:00,
2013-07-05 14:32:00,95.3,76.6,30.02,WNW,284,2.0,2.0,55,0.00,,SCT040,0.00,VWS V14.01,2013-07-05 18:32:00,
2013-07-05 14:37:00,95.8,77.1,30.02,West,263,2.0,2.0,55,0.00,,SCT040,0.00,VWS V14.01,2013-07-05 18:37:00,
2013-07-05 14:42:00,95.9,77.1,30.02,WSW,249,3.0,3.0,55,0.00,,SCT040,0.00,VWS V14.01,2013-07-05 18:42:00,
2013-07-05 14:47:00,95.4,76.7,30.02,West,280,2.0,6.0,55,0.00,,SCT040,0.00,VWS V14.01,2013-07-05 18:47:00,
2013-07-05 14:52:00,95.4,76.7,30.02,SW,221,5.0,5.0,55,0.00,,SCT040,0.00,VWS V14.01,2013-07-05 18:52:00,
2013-07-05 14:57:00,95.1,76.4,30.02,WSW,256,3.0,5.0,55,0.00,,SCT040,0.00,VWS V14.01,2013-07-05 18:57:00,
2013-07-05 15:02:00,95.4,76.7,30.02,South,181,1.0,4.0,55,0.00,,SCT040,0.00,VWS V14.01,2013-07-05 19:02:00,
2013-07-05 15:07:00,95.4,76.1,30.02,West,278,2.0,5.0,54,0.00,,SCT040,0.00,VWS V14.01,2013-07-05 19:07:00,
2013-07-05 15:12:00,95.6,76.9,30.01,WSW,255,1.0,2.0,55,0.00,,SCT040,0.00,VWS V14.01,2013-07-05 19:12:00,
2013-07-05 15:17:00,95.2,76.5,30.01,SW,229,6.0,6.0,55,0.00,,SCT040,0.00,VWS V14.01,2013-07-05 19:17:00,
2013-07-05 15:18:00,95.1,76.4,30.01,West,269,4.0,5.0,55,0.00,,SCT040,0.00,VWS V14.01,2013-07-05 19:18:00,
2013-07-05 15:23:00,94.6,76.5,30.01,WSW,245,4.0,4.0,56,0.00,,SCT040,0.00,VWS V14.01,2013-07-05 19:23:00,
2013-07-05 15:28:00,94.3,76.2,30.01,South,176,0.0,3.0,56,0.00,,SCT040,0.00,VWS V14.01,2013-07-05 19:28:00,
2013-07-05 15:33:00,94.8,76.7,30.00,SW,221,0.0,2.0,56,0.00,,SCT040,0.00,VWS V14.01,2013-07-05 19:33:00,
2013-07-05 15:38:00,94.8,76.1,30.00,WSW,252,2.0,7.0,55,0.00,,SCT050,0.00,VWS V14.01,2013-07-05 19:38:00,
2013-07-05 15:42:00,94.9,76.2,30.00,WSW,255,0.0,3.0,55,0.00,,SCT050,0.00,VWS V14.01,2013-07-05 19:42:00,
2013-07-05 15:47:00,94.5,76.4,30.00,SW,226,4.0,4.0,56,0.00,,SCT050,0.00,VWS V14.01,2013-07-05 19:47:00,
2013-07-05 15:52:00,94.6,75.9,30.00,East,98,1.0,1.0,55,0.00,,SCT050,0.00,VWS V14.01,2013-07-05 19:52:00,
2013-07-05 15:57:00,94.7,76.0,30.00,SSW,197,2.0,6.0,55,0.00,,SCT050,0.00,VWS V14.01,2013-07-05 19:57:00,
2013-07-05 16:02:00,94.8,76.1,30.00,WSW,255,0.0,1.0,55,0.00,,SCT050,0.00,VWS V14.01,2013-07-05 20:02:00,
2013-07-05 16:07:00,94.9,75.7,30.00,WSW,239,2.0,4.0,54,0.00,,SCT050,0.00,VWS V14.01,2013-07-05 20:07:00,
2013-07-05 16:12:00,94.9,75.7,29.99,SSW,198,1.0,2.0,54,0.00,,SCT050,0.00,VWS V14.01,2013-07-05 20:12:00,
2013-07-05 16:17:00,94.7,75.5,29.99,SW,228,1.0,5.0,54,0.00,,SCT050,0.00,VWS V14.01,2013-07-05 20:17:00,
2013-07-05 16:22:00,94.6,75.9,29.99,WSW,249,1.0,5.0,55,0.00,,SCT050,0.00,VWS V14.01,2013-07-05 20:22:00,
2013-07-05 16:27:00,94.6,76.5,29.99,SE,138,2.0,6.0,56,0.00,,SCT050,0.00,VWS V14.01,2013-07-05 20:27:00,
2013-07-05 16:32:00,94.4,76.3,29.99,West,281,1.0,2.0,56,0.00,,SCT050,0.00,VWS V14.01,2013-07-05 20:32:00,
2013-07-05 16:37:00,94.5,75.8,29.99,WNW,285,2.0,3.0,55,0.00,,SCT250,0.00,VWS V14.01,2013-07-05 20:37:00,
2013-07-05 16:42:00,94.5,75.8,29.99,West,277,1.0,2.0,55,0.00,,SCT250,0.00,VWS V14.01,2013-07-05 20:42:00,
2013-07-05 16:47:00,94.3,75.7,29.99,SSW,212,3.0,6.0,55,0.00,,SCT250,0.00,VWS V14.01,2013-07-05 20:47:00,
2013-07-05 16:52:00,94.1,75.5,29.99,SW,223,1.0,2.0,55,0.00,,SCT250,0.00,VWS V14.01,2013-07-05 20:52:00,
2013-07-05 16:57:00,94.0,75.9,29.99,WSW,246,4.0,4.0,56,0.00,,SCT250,0.00,VWS V14.01,2013-07-05 20:57:00,
2013-07-05 17:02:00,93.9,75.3,29.99,SSW,210,2.0,7.0,55,0.00,,SCT250,0.00,VWS V14.01,2013-07-05 21:02:00,
2013-07-05 17:07:00,93.7,75.6,29.99,WSW,257,2.0,6.0,56,0.00,,SCT250,0.00,VWS V14.01,2013-07-05 21:07:00,
2013-07-05 17:12:00,93.7,76.2,29.98,West,281,4.0,4.0,57,0.00,,SCT250,0.00,VWS V14.01,2013-07-05 21:12:00,
2013-07-05 17:17:00,93.7,76.2,29.99,SSW,207,5.0,5.0,57,0.00,,SCT250,0.00,VWS V14.01,2013-07-05 21:17:00,
2013-07-05 17:22:00,93.6,76.1,29.98,WSW,250,3.0,3.0,57,0.00,,SCT250,0.00,VWS V14.01,2013-07-05 21:22:00,
2013-07-05 17:27:00,93.6,76.1,29.98,SW,236,2.0,3.0,57,0.00,,SCT250,0.00,VWS V14.01,2013-07-05 21:27:00,
2013-07-05 17:32:00,93.6,76.1,29.98,West,264,1.0,2.0,57,0.00,,FEW250,0.00,VWS V14.01,2013-07-05 21:32:00,
2013-07-05 17:35:00,93.8,76.3,29.98,West,266,2.0,5.0,57,0.00,,FEW250,0.00,VWS V14.01,2013-07-05 21:35:00,
2013-07-05 17:40:00,93.9,76.9,29.98,West,269,0.0,3.0,58,0.00,,FEW250,0.00,VWS V14.01,2013-07-05 21:40:00,
2013-07-05 17:45:00,93.7,76.2,29.98,WSW,255,1.0,4.0,57,0.00,,FEW250,0.00,VWS V14.01,2013-07-05 21:45:00,
2013-07-05 17:50:00,93.6,76.6,29.98,WSW,245,2.0,2.0,58,0.00,,FEW250,0.00,VWS V14.01,2013-07-05 21:50:00,
2013-07-05 17:55:00,93.5,76.5,29.98,SE,143,4.0,5.0,58,0.00,,FEW250,0.00,VWS V14.01,2013-07-05 21:55:00,
2013-07-05 18:00:00,93.2,76.2,29.98,NW,318,2.0,3.0,58,0.00,,FEW250,0.00,VWS V14.01,2013-07-05 22:00:00,
2013-07-05 18:05:00,92.9,75.9,29.98,WSW,255,4.0,6.0,58,0.00,,FEW250,0.00,VWS V14.01,2013-07-05 22:05:00,
2013-07-05 18:10:00,92.7,75.8,29.98,West,269,2.0,2.0,58,0.00,,FEW250,0.00,VWS V14.01,2013-07-05 22:10:00,
2013-07-05 18:16:00,92.6,76.2,29.97,WSW,243,2.0,4.0,59,0.00,,FEW250,0.00,VWS V14.01,2013-07-05 22:16:00,
2013-07-05 18:21:00,92.3,76.4,29.97,NNW,330,1.0,2.0,60,0.00,,FEW250,0.00,VWS V14.01,2013-07-05 22:21:00,
2013-07-05 18:26:00,92.2,76.3,29.97,West,260,2.0,3.0,60,0.00,,FEW250,0.00,VWS V14.01,2013-07-05 22:26:00,
2013-07-05 18:31:00,92.2,75.8,29.98,West,266,1.0,2.0,59,0.00,,FEW250,0.00,VWS V14.01,2013-07-05 22:31:00,
2013-07-05 18:36:00,92.0,76.1,29.98,West,262,1.0,2.0,60,0.00,,SCT250,0.00,VWS V14.01,2013-07-05 22:36:00,
2013-07-05 18:41:00,91.9,76.5,29.98,WNW,300,1.0,2.0,61,0.00,,SCT250,0.00,VWS V14.01,2013-07-05 22:41:00,
2013-07-05 18:46:00,91.6,76.2,29.98,WSW,239,1.0,1.0,61,0.00,,SCT250,0.00,VWS V14.01,2013-07-05 22:46:00,
2013-07-05 18:51:00,91.6,76.2,29.98,WSW,243,1.0,2.0,61,0.00,,SCT250,0.00,VWS V14.01,2013-07-05 22:51:00,
2013-07-05 18:56:00,91.7,76.3,29.98,WSW,242,0.0,0.0,61,0.00,,SCT250,0.00,VWS V14.01,2013-07-05 22:56:00,
2013-07-05 18:57:00,91.8,76.4,29.98,NW,304,0.0,2.0,61,0.00,,SCT250,0.00,VWS V14.01,2013-07-05 22:57:00,
2013-07-05 19:02:00,92.0,76.6,29.98,SW,226,1.0,2.0,61,0.00,,SCT250,0.00,VWS V14.01,2013-07-05 23:02:00,
2013-07-05 19:07:00,91.9,76.5,29.98,SW,214,3.0,3.0,61,0.00,,SCT250,0.00,VWS V14.01,2013-07-05 23:07:00,
2013-07-05 19:12:00,91.3,76.5,29.99,SSW,193,0.0,3.0,62,0.00,,SCT250,0.00,VWS V14.01,2013-07-05 23:12:00,
2013-07-05 19:17:00,90.9,76.6,29.98,WSW,249,0.0,2.0,63,0.00,,SCT250,0.00,VWS V14.01,2013-07-05 23:17:00,
2013-07-05 19:22:00,90.7,76.8,29.98,SSW,204,0.0,2.0,64,0.00,,SCT250,0.00,VWS V14.01,2013-07-05 23:22:00,
2013-07-05 19:27:00,90.3,76.5,29.98,ESE,115,1.0,2.0,64,0.00,,SCT250,0.00,VWS V14.01,2013-07-05 23:27:00,
2013-07-05 19:32:00,89.9,76.6,29.98,SW,229,1.0,1.0,65,0.00,,SCT250,0.00,VWS V14.01,2013-07-05 23:32:00,
2013-07-05 19:37:00,89.5,76.2,29.97,SSW,213,0.0,3.0,65,0.00,,FEW250,0.00,VWS V14.01,2013-07-05 23:37:00,
2013-07-05 19:42:00,89.3,76.5,29.97,SW,221,1.0,2.0,66,0.00,,FEW250,0.00,VWS V14.01,2013-07-05 23:42:00,
2013-07-05 19:47:00,89.0,76.6,29.97,WSW,254,0.0,0.0,67,0.00,,FEW250,0.00,VWS V14.01,2013-07-05 23:47:00,
2013-07-05 19:52:00,88.6,76.2,29.97,SW,236,1.0,3.0,67,0.00,,FEW250,0.00,VWS V14.01,2013-07-05 23:52:00,
2013-07-05 19:57:00,88.3,76.4,29.97,SW,224,0.0,2.0,68,0.00,,FEW250,0.00,VWS V14.01,2013-07-05 23:57:00,
2013-07-05 20:02:00,88.0,76.6,29.97,WSW,249,2.0,2.0,69,0.00,,FEW250,0.00,VWS V14.01,2013-07-06 00:02:00,
2013-07-05 20:07:00,87.7,76.3,29.97,WSW,238,2.0,2.0,69,0.00,,FEW250,0.00,VWS V14.01,2013-07-06 00:07:00,
2013-07-05 20:12:00,87.5,76.5,29.97,SW,236,1.0,2.0,70,0.00,,FEW250,0.00,VWS V14.01,2013-07-06 00:12:00,
2013-07-05 20:17:00,87.4,76.4,29.98,WSW,247,0.0,1.0,70,0.00,,FEW250,0.00,VWS V14.01,2013-07-06 00:17:00,
2013-07-05 20:21:00,87.2,76.2,29.98,WSW,253,0.0,2.0,70,0.00,,FEW250,0.00,VWS V14.01,2013-07-06 00:21:00,
2013-07-05 20:26:00,87.1,76.1,29.98,WSW,243,2.0,2.0,70,0.00,,FEW250,0.00,VWS V14.01,2013-07-06 00:26:00,
2013-07-05 20:31:00,86.9,76.4,29.98,SW,233,1.0,2.0,71,0.00,,FEW250,0.00,VWS V14.01,2013-07-06 00:31:00,
2013-07-05 20:36:00,86.7,76.2,29.98,SW,233,2.0,2.0,71,0.00,,FEW250,0.00,VWS V14.01,2013-07-06 00:36:00,
2013-07-05 20:41:00,86.6,76.1,29.98,WSW,249,1.0,1.0,71,0.00,,FEW250,0.00,VWS V14.01,2013-07-06 00:41:00,
2013-07-05 20:46:00,86.4,75.9,29.98,SW,231,1.0,1.0,71,0.00,,FEW250,0.00,VWS V14.01,2013-07-06 00:46:00,
2013-07-05 20:51:00,86.2,76.1,29.98,WSW,246,1.0,3.0,72,0.00,,FEW250,0.00,VWS V14.01,2013-07-06 00:51:00,
2013-07-05 20:56:00,86.1,75.6,29.98,WSW,249,1.0,1.0,71,0.00,,FEW250,0.00,VWS V14.01,2013-07-06 00:56:00,
2013-07-05 21:01:00,86.0,75.5,29.98,SW,229,0.0,1.0,71,0.00,,FEW250,0.00,VWS V14.01,2013-07-06 01:01:00,
2013-07-05 21:06:00,86.0,75.5,29.99,WSW,239,1.0,2.0,71,0.00,,FEW250,0.00,VWS V14.01,2013-07-06 01:06:00,
2013-07-05 21:11:00,86.0,75.5,29.99,SSW,211,3.0,3.0,71,0.00,,FEW250,0.00,VWS V14.01,2013-07-06 01:11:00,
2013-07-05 21:16:00,85.8,75.7,29.99,SSW,212,0.0,1.0,72,0.00,,FEW250,0.00,VWS V14.01,2013-07-06 01:16:00,
2013-07-05 21:21:00,85.6,75.5,30.00,SW,235,1.0,1.0,72,0.00,,FEW250,0.00,VWS V14.01,2013-07-06 01:21:00,
2013-07-05 21:26:00,85.5,75.4,30.00,WSW,249,0.0,1.0,72,0.00,,FEW250,0.00,VWS V14.01,2013-07-06 01:26:00,
2013-07-05 21:32:00,85.3,75.7,30.00,SW,236,0.0,0.0,73,0.00,,FEW250,0.00,VWS V14.01,2013-07-06 01:32:00,
2013-07-05 21:33:00,85.3,75.2,30.00,SW,236,0.0,0.0,72,0.00,,SCT250,0.00,VWS V14.01,2013-07-06 01:33:00,
2013-07-05 21:38:00,85.2,75.6,30.00,SW,233,0.0,1.0,73,0.00,,SCT250,0.00,VWS V14.01,2013-07-06 01:38:00,
2013-07-05 21:43:00,85.1,75.5,30.01,SW,219,1.0,1.0,73,0.00,,SCT250,0.00,VWS V14.01,2013-07-06 01:43:00,
2013-07-05 21:48:00,85.0,75.4,30.01,SW,217,1.0,2.0,73,0.00,,SCT250,0.00,VWS V14.01,2013-07-06 01:48:00,
2013-07-05 21:53:00,84.9,75.3,30.00,SW,230,1.0,1.0,73,0.00,,SCT250,0.00,VWS V14.01,2013-07-06 01:53:00,
2013-07-05 21:58:00,84.8,75.2,30.01,SSW,208,0.0,1.0,73,0.00,,SCT250,0.00,VWS V14.01,2013-07-06 01:58:00,
2013-07-05 22:03:00,84.7,75.1,30.00,SW,231,0.0,1.0,73,0.00,,SCT250,0.00,VWS V14.01,2013-07-06 02:03:00,
2013-07-05 22:08:00,84.6,75.4,30.00,SW,221,1.0,2.0,74,0.00,,SCT250,0.00,VWS V14.01,2013-07-06 02:08:00,
2013-07-05 22:10:00,84.5,75.3,30.00,SW,224,0.0,1.0,74,0.00,,SCT250,0.00,VWS V14.01,2013-07-06 02:10:00,
2013-07-05 22:15:00,84.4,75.2,30.00,WSW,239,0.0,2.0,74,0.00,,SCT250,0.00,VWS V14.01,2013-07-06 02:15:00,
2013-07-05 22:17:00,84.3,75.1,30.00,WSW,249,1.0,1.0,74,0.00,,SCT250,0.00,VWS V14.01,2013-07-06 02:17:00,
2013-07-05 22:22:00,84.2,75.0,30.00,SW,235,2.0,2.0,74,0.00,,SCT250,0.00,VWS V14.01,2013-07-06 02:22:00,
2013-07-05 22:27:00,84.2,75.0,29.99,South,169,2.0,2.0,74,0.00,,SCT250,0.00,VWS V14.01,2013-07-06 02:27:00,
2013-07-05 22:32:00,84.1,74.9,29.99,WSW,255,0.0,1.0,74,0.00,,SCT250,0.00,VWS V14.01,2013-07-06 02:32:00,
2013-07-05 22:37:00,84.1,74.9,29.99,SW,226,1.0,1.0,74,0.00,,BKN250,0.00,VWS V14.01,2013-07-06 02:37:00,
2013-07-05 22:42:00,83.9,74.7,29.99,SW,219,0.0,0.0,74,0.00,,BKN250,0.00,VWS V14.01,2013-07-06 02:42:00,
2013-07-05 22:47:00,83.8,75.0,29.99,SW,231,0.0,1.0,75,0.00,,BKN250,0.00,VWS V14.01,2013-07-06 02:47:00,
2013-07-05 22:52:00,83.7,74.5,29.99,WSW,246,2.0,3.0,74,0.00,,BKN250,0.00,VWS V14.01,2013-07-06 02:52:00,
2013-07-05 22:57:00,83.7,74.5,29.99,SW,228,0.0,1.0,74,0.00,,BKN250,0.00,VWS V14.01,2013-07-06 02:57:00,
2013-07-05 23:02:00,83.7,74.5,29.99,WSW,240,0.0,1.0,74,0.00,,BKN250,0.00,VWS V14.01,2013-07-06 03:02:00,
2013-07-05 23:07:00,83.7,74.5,29.99,SW,236,0.0,1.0,74,0.00,,BKN250,0.00,VWS V14.01,2013-07-06 03:07:00,
2013-07-05 23:12:00,83.7,74.5,29.99,WSW,252,0.0,1.0,74,0.00,,BKN250,0.00,VWS V14.01,2013-07-06 03:12:00,
2013-07-05 23:17:00,83.7,74.5,29.99,SW,228,0.0,1.0,74,0.00,,BKN250,0.00,VWS V14.01,2013-07-06 03:17:00,
2013-07-05 23:22:00,83.7,74.5,30.00,West,260,2.0,2.0,74,0.00,,BKN250,0.00,VWS V14.01,2013-07-06 03:22:00,
2013-07-05 23:27:00,83.7,74.5,30.00,West,274,0.0,1.0,74,0.00,,BKN250,0.00,VWS V14.01,2013-07-06 03:27:00,
2013-07-05 23:32:00,83.7,74.5,30.01,WSW,249,1.0,1.0,74,0.00,,BKN200,0.00,VWS V14.01,2013-07-06 03:32:00,
2013-07-05 23:37:00,83.6,74.4,30.00,SSW,205,0.0,1.0,74,0.00,,BKN200,0.00,VWS V14.01,2013-07-06 03:37:00,
2013-07-05 23:42:00,83.5,74.8,30.00,WSW,249,0.0,1.0,75,0.00,,BKN200,0.00,VWS V14.01,2013-07-06 03:42:00,
2013-07-05 23:47:00,83.4,74.7,30.01,West,280,0.0,3.0,75,0.00,,BKN200,0.00,VWS V14.01,2013-07-06 03:47:00,
2013-07-05 23:52:00,83.3,74.6,30.01,NW,307,0.0,2.0,75,0.00,,BKN200,0.00,VWS V14.01,2013-07-06 03:52:00,
2013-07-05 23:57:00,83.2,74.5,30.00,WSW,249,0.0,2.0,75,0.00,,BKN200,0.00,VWS V14.01,2013-07-06 03:57:00,